EW1976 Weather Reports


Display with metric or nautical units.
time (UTC)temp
F
wind
direction
speed
MPH
gust
MPH
rain 1hr
in
rain 24hr
in
rain mn
in
humidity
%
barometer
mb
20260504173004 73 286 1.0 4.0 0.00 0.00 0.00 55 1010.9
20260504171502 73 35 0.0 2.0 0.00 0.00 0.00 55 1011.1
20260504170109 73 318 1.0 3.0 0.00 0.00 0.00 59 1011.0
20260504081553 51 203 0.0 0.0 0.00 0.00 0.00 92 1010.1
20260504044546 58 203 0.0 0.0 0.00 0.00 0.00 82 1010.0
20260504043039 58 203 0.0 0.0 0.00 0.00 0.00 81 1010.1
20260504041537 60 203 0.0 0.0 0.00 0.00 0.00 79 1010.1
20260504040039 61 203 0.0 0.0 0.00 0.00 0.00 77 1010.0
20260504034553 63 202 0.0 0.0 0.00 0.00 0.00 75 1010.0
20260504033039 65 204 0.0 0.0 0.00 0.00 0.00 71 1010.0
20260504031534 68 204 0.0 1.0 0.00 0.00 0.00 69 1010.0
20260504030042 72 207 0.0 1.0 0.00 0.00 0.00 65 1010.0
20260504024532 74 216 0.0 1.0 0.00 0.00 0.00 63 1010.0
20260504023033 75 233 0.0 2.0 0.00 0.00 0.00 56 1009.9
20260504021530 76 248 0.0 2.0 0.00 0.00 0.00 54 1010.0
20260504020028 76 262 0.0 3.0 0.00 0.00 0.00 54 1010.1
20260504014536 76 288 2.0 3.0 0.00 0.00 0.00 53 1010.4
20260504013026 77 266 0.0 4.0 0.00 0.00 0.00 53 1010.4
20260504011527 77 259 1.0 3.0 0.00 0.00 0.00 50 1010.5
20260504010023 77 274 1.0 6.0 0.00 0.00 0.00 48 1010.7
20260504004521 77 221 1.0 4.0 0.00 0.00 0.00 50 1011.0
20260504003028 77 229 1.0 6.0 0.00 0.00 0.00 47 1011.1
20260504001519 77 264 1.0 7.0 0.00 0.00 0.00 49 1011.1
20260504000016 77 274 2.0 6.0 0.00 0.00 0.00 47 1011.3
20260503234529 77 286 3.0 7.0 0.00 0.00 0.00 42 1011.4
20260503233013 77 293 2.0 7.0 0.00 0.00 0.00 48 1011.6
20260503231513 76 304 0.0 6.0 0.00 0.00 0.00 51 1011.8
20260503230011 76 269 3.0 7.0 0.00 0.00 0.00 53 1012.0
20260503224506 76 308 1.0 7.0 0.00 0.00 0.00 54 1012.2
20260503223004 75 236 4.0 8.0 0.00 0.00 0.00 56 1012.4
20260503221504 75 276 3.0 8.0 0.00 0.00 0.00 57 1012.7
20260503220101 75 234 2.0 5.0 0.00 0.00 0.00 56 1012.7
20260503220000 75 208 2.0 5.0 0.00 0.00 0.00 57 1012.7
20260503214601 75 243 4.0 8.0 0.00 0.00 0.00 56 1012.9
20260503213107 75 285 3.0 8.0 0.00 0.00 0.00 53 1013.0
20260503211555 74 271 4.0 8.0 0.00 0.00 0.00 49 1013.2
20260503210100 75 280 3.0 7.0 0.00 0.00 0.00 49 1013.3
20260503204554 74 286 2.0 6.0 0.00 0.00 0.00 52 1013.5
20260503203049 73 216 1.0 7.0 0.00 0.00 0.00 55 1013.6
20260503201546 72 287 2.0 9.0 0.00 0.00 0.00 54 1013.9
20260503200049 71 264 4.0 9.0 0.00 0.00 0.00 59 1014.2
20260503194546 71 264 1.0 9.0 0.00 0.00 0.00 59 1014.3
20260503193050 71 249 3.0 9.0 0.00 0.00 0.00 62 1014.3
20260503191543 72 278 4.0 10.0 0.00 0.00 0.00 62 1014.3
20260503190039 73 262 4.0 7.0 0.00 0.00 0.00 60 1014.4
20260503184550 73 284 2.0 5.0 0.00 0.00 0.00 57 1014.4
20260503183047 73 342 1.0 5.0 0.00 0.00 0.00 56 1014.7
20260503181532 72 233 0.0 5.0 0.00 0.00 0.00 58 1014.8
20260503180034 72 103 1.0 3.0 0.00 0.00 0.00 57 1014.9
20260503174527 70 282 1.0 4.0 0.00 0.00 0.00 57 1015.1